[Date Prev][Date Next][Thread Prev][Thread Next] - [Date Index][Thread Index][Author Index]

2 Line ISS Keps 4-9



ISS
1 25544U 98067A   02099.18872694  .00058820  00000-0  70947-3 0  2799
2 25544  51.6383  39.6225 0002884  14.3077  81.1798 15.60187561193275


----
Via the sarex mailing list at AMSAT.ORG courtesy of AMSAT-NA.
To unsubscribe, send "unsubscribe sarex" to Majordomo@amsat.org



AMSAT Top AMSAT Home